Tracking 29892 objects as of 21-Nov-2024
HD Live streaming from Space Station
objects crossing your sky now

STARLINK-3993

Track STARLINK-3993 now!
10-day predictions
STARLINK-3993 is classified as:


NORAD ID: 52692
Int'l Code: 2022-053AN
Perigee: 546.0 km
Apogee: 547.8 km
Inclination: 53.2 °
Period: 95.4 minutes
Semi major axis: 6917 km
RCS: Unknown
Launch date: May 18, 2022
Source: United States (US)
Launch site: AIR FORCE EASTERN TEST RANGE (AFETR)
Your satellite tracking list
Your tracking list is empty




NASA's NSSDC Master Catalog

Two Line Element Set (TLE):
1 52692U 22053AN  24325.81432473  .00000407  00000-0  43650-4 0  9997
2 52692  53.2156 111.1575 0001294  85.8028 274.3112 15.08839929139216
Source of the keplerian elements: AFSPC